Location: C&O Canal National Historical Park
(39.6184°N, 77.9938°W)
Time: 13:44:17
(UTC-05:00)

N. Korean satellite - Visible Passes

Search period start: 18 February 2019 00:00
Search period end: 28 February 2019 00:00
Orbit: 457 x 510 km, 97.2° (Epoch: 17 February)

Date Brightness Start Highest point End Pass type
(mag) Time Alt. Az. Time Alt. Az. Time Alt. Az.
19 Feb 6.7 06:19:42 10° NNE 06:23:10 73° E 06:26:35 10° S visible
19 Feb 9.9 18:28:28 10° SW 18:31:13 20° W 18:33:57 10° NW visible
20 Feb 8.6 05:55:15 10° NNE 05:58:23 31° E 06:01:28 10° SSE visible
21 Feb 9.9 05:31:25 10° NE 05:33:30 15° E 05:35:34 10° SE visible
22 Feb 10.5 18:49:24 10° WSW 18:50:33 11° W 18:51:43 10° WNW visible
23 Feb 7.1 06:14:11 10° NNE 06:17:36 60° E 06:20:59 10° S visible
23 Feb 9.7 18:22:44 10° SSW 18:25:39 22° W 18:28:34 10° NW visible
24 Feb 8.9 05:49:49 10° NE 05:52:47 26° E 05:55:43 10° SSE visible
25 Feb 10.0 05:26:14 10° ENE 05:27:52 13° E 05:29:31 10° ESE visible
26 Feb 10.3 18:43:14 10° WSW 18:44:56 13° W 18:46:40 10° WNW visible
27 Feb 7.6 06:08:38 10° NNE 06:11:59 50° E 06:15:19 10° S visible
